Weather History for Omaha Millard, NE

Change the Weather History Date:

Wednesday, June 26, 2013

  Actual Average (KOMA) Record (KOMA)
Temperature  
Mean Temperature 80 °F 75 °F  
Max Temperature 90 °F 86 °F 105 °F (1936)
Min Temperature 71 °F 64 °F 50 °F (1974)
Degree Days  
Heating Degree Days 0 0  
Month to date heating degree days 15  
Since 1 June heating degree days 15  
Since 1 July heating degree days 6165  
Cooling Degree Days 16 10  
Month to date cooling degree days 187  
Year to date cooling degree days 269  
Since 1 June cooling degree days 187  
Growing Degree Days 30 (Base 50)    
Moisture  
Dew Point 66 °F    
Average Humidity 64    
Maximum Humidity 96    
Minimum Humidity 34    
Precipitation  
Precipitation 0.00 in 0.14 in 2.90 in (1935)
Month to date precipitation 3.69  
Year to date precipitation 14.97  
Snow  
Snow 0.00 in 0.00 in - ()
Month to date snowfall 0.0  
Since 1 July snowfall 26.4  
Snow Depth -    
Sea Level Pressure  
Sea Level Pressure 29.81 in    
Wind  
Wind Speed 5 mph (NW)    
Max Wind Speed 16 mph    
Max Gust Speed 21 mph    
Visibility 10 miles    
Events      
T = Trace of Precipitation, MM = Missing Value Source: NWS Daily Summary

Daily Weather History Graph

Daily Weather History Graph

Search for Another Location

Airport:

Trip Planner

Search our weather history database for the weather conditions in past years. The results will help you decide how hot, cold, wet, or windy it might be!

Date:

Astronomy

Jun. 26, 2013 Rise Set
Actual Time 5:53 AM CDT 9:01 PM CDT
Civil Twilight 5:19 AM CDT 9:35 PM CDT
Nautical Twilight 4:36 AM CDT 10:18 PM CDT
Astronomical Twilight 3:44 AM CDT 11:09 PM CDT
Moon 11:22 PM CDT 9:48 AM CDT
Length of Visible Light 16h 15m
Length of Day
15h 08m
Waning Gibbous, 85% of the Moon is Illuminated
Jun 26
Waning Gibbous
Jun 29
Last Quarter
Jul 8
New
Jul 15
First Quarter
Jul 22
Full

Hourly Weather History & Observations

Time (CDT) Temp. Heat Index Dew Point Humidity Pressure Visibility Wind Dir Wind Speed Gust Speed Precip Events Conditions
12:15 AM 78.8 °F - 72.9 °F 82% 29.69 in 10.0 mi SE 4.6 mph - N/A   Scattered Clouds
12:35 AM 78.8 °F - 73.4 °F 83% 29.68 in 10.0 mi ESE 3.5 mph - N/A   Clear
12:55 AM 77.9 °F - 72.9 °F 84% 29.68 in 10.0 mi SE 4.6 mph - N/A   Clear
1:15 AM 77.2 °F - 72.9 °F 86% 29.67 in 10.0 mi SSE 3.5 mph - N/A   Clear
1:35 AM 76.8 °F - 72.9 °F 88% 29.68 in 10.0 mi Calm Calm - N/A   Clear
1:55 AM 75.4 °F - 72.7 °F 91% 29.68 in 10.0 mi Calm Calm - N/A   Clear
2:15 AM 75.2 °F - 72.9 °F 92% 29.67 in 10.0 mi Calm Calm - N/A   Clear
2:35 AM 74.3 °F - 72.5 °F 94% 29.68 in 7.0 mi Calm Calm - N/A   Clear
2:55 AM 73.6 °F - 72.5 °F 96% 29.68 in 7.0 mi Calm Calm - N/A   Clear
3:15 AM 74.1 °F - 72.7 °F 95% 29.68 in 10.0 mi Calm Calm - N/A   Clear
3:35 AM 74.5 °F - 72.7 °F 94% 29.68 in 10.0 mi Calm Calm - N/A   Clear
3:55 AM 75.2 °F - 73.0 °F 93% 29.69 in 10.0 mi NW 3.5 mph - N/A   Clear
4:15 AM 76.3 °F - 73.6 °F 91% 29.69 in 10.0 mi NW 4.6 mph - N/A   Clear
4:35 AM 76.6 °F - 73.8 °F 91% 29.70 in 10.0 mi NW 5.8 mph - N/A   Clear
4:55 AM 76.3 °F - 73.8 °F 92% 29.71 in 10.0 mi NW 5.8 mph - N/A   Clear
5:15 AM 75.4 °F - 73.4 °F 94% 29.72 in 10.0 mi WNW 4.6 mph - N/A   Clear
5:35 AM 75.4 °F - 73.4 °F 94% 29.72 in 10.0 mi NW 5.8 mph - N/A   Clear
5:55 AM 76.1 °F - 73.4 °F 91% 29.73 in 10.0 mi WNW 8.1 mph - N/A   Clear
6:15 AM 77.0 °F - 72.7 °F 86% 29.75 in 7.0 mi NW 6.9 mph - N/A   Clear
6:35 AM 77.0 °F - 71.6 °F 83% 29.75 in 10.0 mi NW 9.2 mph 16.1 mph N/A   Clear
6:55 AM 76.6 °F - 70.7 °F 82% 29.76 in 10.0 mi NW 9.2 mph - N/A   Clear
7:15 AM 77.2 °F - 70.2 °F 79% 29.76 in 10.0 mi NW 10.4 mph - N/A   Clear
7:35 AM 77.7 °F - 69.1 °F 75% 29.77 in 10.0 mi NW 6.9 mph - N/A   Clear
7:55 AM 78.1 °F - 68.7 °F 73% 29.79 in 10.0 mi NW 9.2 mph - N/A   Clear
8:15 AM 78.8 °F - 68.9 °F 72% 29.79 in 10.0 mi NW 9.2 mph 16.1 mph N/A   Clear
8:35 AM 79.3 °F - 68.4 °F 69% 29.81 in 10.0 mi NNW 8.1 mph 17.3 mph N/A   Clear
8:55 AM 79.7 °F - 68.2 °F 68% 29.81 in 10.0 mi NW 15.0 mph 19.6 mph N/A   Clear
9:15 AM 80.1 °F 82.6 °F 67.6 °F 66% 29.82 in 10.0 mi NW 16.1 mph 20.7 mph N/A   Clear
9:55 AM 81.1 °F 83.9 °F 67.8 °F 64% 29.82 in 10.0 mi NNW 9.2 mph - N/A   Clear
10:15 AM 81.7 °F 84.3 °F 67.5 °F 62% 29.82 in 10.0 mi NW 10.4 mph - N/A   Clear
10:35 AM 82.8 °F 85.1 °F 66.4 °F 58% 29.83 in 10.0 mi NW 11.5 mph 18.4 mph N/A   Clear
10:55 AM 83.5 °F 85.3 °F 65.3 °F 54% 29.84 in 10.0 mi NW 13.8 mph - N/A   Clear
11:15 AM 83.7 °F 86.0 °F 66.2 °F 56% 29.85 in 10.0 mi NW 10.4 mph 17.3 mph N/A   Clear
11:35 AM 84.2 °F 86.1 °F 65.1 °F 53% 29.85 in 10.0 mi WNW 13.8 mph 17.3 mph N/A   Clear
11:55 AM 84.9 °F 86.8 °F 65.3 °F 52% 29.85 in 10.0 mi NNW 8.1 mph - N/A   Clear
12:15 PM 85.5 °F 87.4 °F 65.7 °F 51% 29.86 in 10.0 mi NW 10.4 mph - N/A   Clear
12:35 PM 86.0 °F 87.9 °F 65.3 °F 50% 29.87 in 10.0 mi NW 11.5 mph - N/A   Clear
12:55 PM 86.0 °F 87.9 °F 65.1 °F 50% 29.86 in 10.0 mi WNW 9.2 mph - N/A   Clear
1:15 PM 86.9 °F 88.3 °F 64.4 °F 47% 29.86 in 10.0 mi WNW 13.8 mph 18.4 mph N/A   Clear
1:35 PM 87.8 °F 87.9 °F 61.7 °F 41% 29.86 in 10.0 mi NNW 10.4 mph 17.3 mph N/A   Clear
1:55 PM 88.0 °F 87.1 °F 59.0 °F 37% 29.86 in 10.0 mi NNW 9.2 mph 16.1 mph N/A   Clear
2:15 PM 88.7 °F 88.0 °F 59.0 °F 37% 29.86 in 10.0 mi NNW 10.4 mph 17.3 mph N/A   Clear
2:35 PM 87.6 °F 87.2 °F 59.9 °F 39% 29.86 in 10.0 mi WNW 12.7 mph 17.3 mph N/A   Clear
2:55 PM 89.1 °F 88.5 °F 59.7 °F 37% 29.86 in 10.0 mi NW 9.2 mph - N/A   Clear
3:15 PM 88.7 °F 88.3 °F 60.1 °F 38% 29.86 in 10.0 mi NNW 6.9 mph 19.6 mph N/A   Clear
3:35 PM 88.9 °F 88.8 °F 60.6 °F 39% 29.85 in 10.0 mi WNW 9.2 mph - N/A   Clear
3:55 PM 89.6 °F 88.4 °F 57.4 °F 34% 29.85 in 10.0 mi North 6.9 mph - N/A   Clear
4:15 PM 90.3 °F 89.6 °F 59.5 °F 35% 29.85 in 10.0 mi NW 6.9 mph - N/A   Clear
4:35 PM 90.5 °F 89.5 °F 58.6 °F 34% 29.85 in 10.0 mi NW 8.1 mph - N/A   Clear
4:55 PM 90.0 °F 90.0 °F 61.5 °F 38% 29.85 in 10.0 mi WNW 6.9 mph - N/A   Clear
5:15 PM 88.7 °F 88.6 °F 60.8 °F 39% 29.84 in 10.0 mi WNW 8.1 mph - N/A   Clear
5:35 PM 89.8 °F 90.0 °F 61.5 °F 39% 29.84 in 10.0 mi NW 4.6 mph - N/A   Clear
5:55 PM 89.8 °F 88.9 °F 58.5 °F 35% 29.85 in 10.0 mi NNW 3.5 mph - N/A   Clear
6:15 PM 89.4 °F 89.2 °F 60.6 °F 38% 29.85 in 10.0 mi WNW 5.8 mph - N/A   Clear
6:35 PM 89.2 °F 89.0 °F 60.8 °F 38% 29.85 in 10.0 mi NW 8.1 mph - N/A   Clear
6:55 PM 88.5 °F 88.6 °F 61.2 °F 40% 29.86 in 10.0 mi WNW 8.1 mph - N/A   Clear
7:15 PM 88.2 °F 88.1 °F 60.8 °F 40% 29.86 in 10.0 mi WNW 8.1 mph - N/A   Clear
7:35 PM 87.8 °F 87.6 °F 60.4 °F 40% 29.86 in 10.0 mi NW 4.6 mph - N/A   Clear
7:55 PM 86.4 °F 86.5 °F 61.7 °F 43% 29.86 in 10.0 mi WNW 5.8 mph - N/A   Clear
8:15 PM 85.6 °F 85.7 °F 60.6 °F 43% 29.86 in 10.0 mi West 3.5 mph - N/A   Clear
8:35 PM 82.8 °F 83.8 °F 62.8 °F 51% 29.86 in 10.0 mi Calm Calm - N/A   Clear
8:55 PM 80.2 °F 81.6 °F 63.3 °F 56% 29.86 in 10.0 mi Calm Calm - N/A   Clear
9:15 PM 78.1 °F - 63.5 °F 61% 29.86 in 10.0 mi Calm Calm - N/A   Clear
9:35 PM 76.6 °F - 63.5 °F 64% 29.86 in 10.0 mi Calm Calm - N/A   Clear
9:55 PM 75.2 °F - 64.2 °F 69% 29.87 in 10.0 mi Calm Calm - N/A   Clear
10:15 PM 74.3 °F - 64.8 °F 72% 29.88 in 10.0 mi Calm Calm - N/A   Clear
10:35 PM 74.3 °F - 64.2 °F 71% 29.89 in 10.0 mi Calm Calm - N/A   Clear
10:55 PM 73.0 °F - 64.9 °F 76% 29.89 in 10.0 mi Calm Calm - N/A   Clear
11:15 PM 72.5 °F - 64.6 °F 76% 29.90 in 10.0 mi Calm Calm - N/A   Clear
11:35 PM 71.8 °F - 64.9 °F 79% 29.90 in 10.0 mi Calm Calm - N/A   Clear
11:55 PM 71.8 °F - 64.8 °F 78% 29.90 in 10.0 mi Calm Calm - N/A   Clear